Tracking 21611 objects as of 21-Oct-2020
HD Live streaming from Space Station
objects crossing your sky now

COSMOS 570

Track COSMOS 570 now!
10-day predictions
COSMOS 570 is classified as:


NORAD ID: 6681
Int'l Code: 1973-037G
Perigee: 1,344.7 km
Apogee: 1,486.8 km
Inclination: 74.0 °
Period: 114.0 minutes
Semi major axis: 7786 km
RCS: 0.6979 m2 (medium)
Launch date: June 8, 1973
Source: Commonwealth of Independent States (former USSR) (CIS)
Launch site: PLESETSK MISSILE AND SPACE COMPLEX (PKMTR)
aabbcc
Your satellite tracking list
Your tracking list is empty




NASA's NSSDC Master Catalog

Two Line Element Set (TLE):
1  6681U 73037G   20294.83576946 -.00000019 +00000-0 -16757-4 0  9998
2  6681 074.0173 315.5030 0091222 105.4781 066.8077 12.63485516184967
Source of the keplerian elements: AFSPC